[[{"header":{"parameterUnit":"m.s-1","parameterCategory":2,"la1":30.2992,"la2":30.254,"lo1":-89.0895,"lo2":-89.0443,"dy":0.0025,"dx":0.0025,"nx":19,"ny":19,"refTime":"2026-04-26T09:00:00:Z","depth":"0","parameterNumber":2,"parameterNumberName":"U-component_of_CURRENTS"},"data":[0,0,0,-0.2161,-0.2162,-0.2258,-0.2258,-0.2323,-0.2323,0,0,0,0,0,0,0,0,0,0,0,-0.2131,-0.2131,-0.216,-0.2162,-0.2258,-0.2258,-0.2323,-0.2323,0,0,0,0,0,0,0,0,0,0,0,-0.213,-0.2131,-0.2131,-0.2163,-0.2258,-0.2258,-0.2322,-0.2268,0,0,0,0,0,0,0,0,0,0,-0.2183,-0.2142,-0.2131,-0.2131,-0.2163,-0.2257,-0.2258,-0.2266,-0.2271,-0.2259,0,-0.2272,0,-0.2291,-0.2325,-0.2325,0,0,0,-0.2174,-0.2138,-0.2178,-0.2132,-0.2164,-0.2257,-0.2218,-0.2269,-0.2275,-0.2266,-0.2273,-0.2276,-0.2292,-0.2325,-0.2325,-0.2367,-0.2367,0,0,-0.2168,-0.2134,-0.2174,-0.2182,-0.2185,-0.2215,-0.2221,-0.2273,-0.2267,-0.2274,-0.2278,-0.2293,-0.2325,-0.2325,-0.2367,-0.2367,0,0,0,-0.2146,-0.213,-0.217,-0.2179,-0.2197,-0.2217,-0.2224,-0.2265,-0.2283,-0.2279,-0.2294,-0.2325,-0.2326,-0.2367,-0.2367,-0.2407,0,0,0,-0.2143,-0.2116,-0.2168,-0.2146,-0.2196,-0.2235,-0.2214,-0.228,-0.2286,-0.2294,-0.2325,-0.2326,-0.2366,-0.2367,-0.2406,-0.2386,0,0,0,-0.2127,-0.2114,-0.2128,-0.2145,-0.2183,-0.2235,-0.2256,-0.2282,-0.2294,-0.2325,-0.2326,-0.2366,-0.2367,-0.2404,-0.2385,-0.2363,0,0,0,-0.2085,-0.2124,-0.2127,-0.2179,-0.2182,-0.2266,-0.2256,-0.2318,-0.2351,-0.2325,-0.2366,-0.2367,-0.2404,-0.2384,-0.2363,-0.223,-0.2221,0,0,-0.212,-0.2126,-0.2164,-0.2171,-0.225,-0.2254,-0.2324,-0.236,-0.2349,-0.2346,-0.2348,-0.2406,-0.2384,-0.2363,-0.2263,-0.2253,0,0,0,-0.2169,-0.2182,-0.2214,-0.2252,-0.231,-0.2338,-0.2374,-0.2388,-0.2409,-0.2367,-0.2407,-0.239,-0.2376,-0.2296,-0.2288,-0.2312,-0.237,-0.237,-0.2369,-0.2142,-0.2194,-0.2242,-0.23,-0.2341,-0.2399,-0.2431,-0.2441,-0.2442,-0.2457,-0.2426,-0.2435,-0.2352,-0.2344,-0.2372,-0.2448,-0.2448,-0.2448,-0.2448,-0.2185,-0.2196,-0.2243,-0.2309,-0.2341,-0.238,-0.2442,-0.2463,-0.2474,-0.2472,-0.2457,-0.2345,-0.2337,-0.237,-0.2451,-0.245,-0.245,-0.2449,-0.2449,-0.2153,-0.2154,-0.2213,-0.2272,-0.2297,-0.235,-0.2361,-0.242,-0.2462,-0.2472,-0.2341,-0.2339,-0.2361,-0.2452,-0.2452,-0.2452,-0.2452,-0.2452,-0.2452,-0.2075,-0.2129,-0.2158,-0.222,-0.2236,-0.2251,-0.2309,-0.232,-0.232,-0.2339,-0.2338,-0.2356,-0.2434,-0.2426,-0.2449,-0.245,-0.245,-0.245,-0.2451,-0.1987,-0.2023,-0.207,-0.2104,-0.2163,-0.2141,-0.2207,-0.2183,-0.2196,-0.2173,-0.2216,-0.2268,-0.2226,-0.223,-0.2216,-0.2183,-0.2183,-0.2183,-0.2183,-0.1892,-0.1924,-0.198,-0.2041,-0.2075,-0.2098,-0.2049,-0.2046,-0.2073,-0.2059,-0.2125,-0.2122,-0.2132,-0.2086,-0.2094,-0.2079,-0.2012,-0.2012,-0.2012,-0.1804,-0.1848,-0.1859,-0.1975,-0.2044,-0.2022,-0.1952,-0.1973,-0.1984,-0.2016,-0.2192,-0.2199,-0.2212,-0.2224,-0.2166,-0.2175,-0.2153,0,0]},{"header":{"parameterUnit":"m.s-1","parameterCategory":2,"la1":30.2992,"la2":30.254,"lo1":-89.0895,"lo2":-89.0443,"dy":0.0025,"dx":0.0025,"nx":19,"ny":19,"refTime":"2026-04-26T09:00:00:Z","depth":"0","parameterNumber":3,"parameterNumberName":"V-component_of_CURRENTS"},"data":[0,0,0,0.0203,0.0204,0.0281,0.0281,0.0443,0.0445,0,0,0,0,0,0,0,0,0,0,0,0.0186,0.0186,0.0203,0.0204,0.0281,0.0281,0.0443,0.0445,0,0,0,0,0,0,0,0,0,0,0,0.0186,0.0186,0.0187,0.0204,0.0281,0.0281,0.0443,0.0376,0,0,0,0,0,0,0,0,0,0,0.0297,0.0241,0.0186,0.0187,0.0204,0.028,0.0282,0.0373,0.038,0.0417,0,0.0415,0,0.0417,0.0454,0.0455,0,0,0,0.0234,0.0234,0.0268,0.0187,0.0205,0.028,0.0255,0.0377,0.0386,0.0428,0.0417,0.0422,0.042,0.0455,0.0456,0.0583,0.0583,0,0,0.023,0.0195,0.0261,0.0272,0.0207,0.0252,0.0257,0.0382,0.0377,0.0417,0.0425,0.0422,0.0456,0.0457,0.0582,0.0583,0,0,0,0.0197,0.0191,0.0222,0.0267,0.0266,0.0253,0.0259,0.0372,0.0385,0.0427,0.0424,0.0457,0.0458,0.0582,0.0582,0.0483,0,0,0,0.0196,0.0171,0.0219,0.0199,0.0263,0.0304,0.0246,0.0377,0.039,0.0423,0.0457,0.046,0.0581,0.0582,0.0485,0.0427,0,0,0,0.0186,0.0169,0.0176,0.0197,0.0216,0.0302,0.0323,0.038,0.0388,0.0455,0.046,0.0581,0.0582,0.0486,0.0431,0.0418,0,0,0,0.0153,0.0126,0.0174,0.0159,0.0215,0.0268,0.0323,0.037,0.0422,0.0457,0.0582,0.0582,0.0487,0.0434,0.0421,0.0345,0.0328,0,0,0.0099,0.0118,0.0116,0.0161,0.0184,0.026,0.0292,0.038,0.0451,0.0549,0.0552,0.0484,0.0431,0.0419,0.039,0.0372,0,0,0,0.0088,0.0081,0.01,0.0127,0.019,0.0236,0.0325,0.0372,0.0458,0.0479,0.0528,0.0499,0.0493,0.0455,0.0441,0.056,0.0586,0.0586,0.0586,-0.002,0.0033,0.0032,0.0099,0.0138,0.0232,0.0273,0.0362,0.0436,0.0462,0.045,0.0416,0.0375,0.0364,0.0488,0.0498,0.0497,0.0497,0.0497,-0.0088,-0.0081,-0.0014,-0.0001,0.0078,0.012,0.023,0.0279,0.0349,0.0411,0.0412,0.0392,0.0342,0.0481,0.0491,0.0492,0.0493,0.0493,0.0494,-0.0156,-0.0146,-0.0128,-0.0086,-0.0049,0.0042,0.0065,0.0155,0.0254,0.0252,0.0259,0.026,0.0354,0.0268,0.0267,0.0267,0.0267,0.0267,0.0266,-0.0224,-0.0204,-0.0211,-0.0171,-0.0152,-0.0121,-0.003,0.0009,0.0081,0.0147,0.0147,0.0362,0.0347,0.0324,0.0262,0.0263,0.0263,0.0264,0.0264,-0.0282,-0.0277,-0.0294,-0.0287,-0.0252,-0.0285,-0.0192,-0.0146,-0.0083,-0.0067,0.0183,0.0109,0.0137,0.0149,0.0124,0.0014,0.0014,0.0014,0.0014,-0.0321,-0.0319,-0.0343,-0.035,-0.0353,-0.0352,-0.041,-0.035,-0.0109,0.0021,0.0151,0.0199,0.0204,0.0242,0.0252,0.0232,0.0153,0.0153,0.0154,-0.0338,-0.0349,-0.0377,-0.0387,-0.0392,-0.0449,-0.0552,-0.0535,-0.0136,0.0178,0.0334,0.0327,0.0423,0.0421,0.0502,0.0507,0.0483,0,0]}],[{"header":{"parameterUnit":"m.s-1","parameterCategory":2,"la1":30.2992,"la2":30.254,"lo1":-89.0895,"lo2":-89.0443,"dy":0.0025,"dx":0.0025,"nx":19,"ny":19,"refTime":"2026-04-26T09:00:00:Z","depth":"2","parameterNumber":2,"parameterNumberName":"U-component_of_CURRENTS"},"data":[0,0,0,-0.0644,-0.0647,-0.0783,-0.0783,-0.0774,-0.0774,0,0,0,0,0,0,0,0,0,0,0,-0.0615,-0.0617,-0.0643,-0.0647,-0.0783,-0.0783,-0.0774,-0.0774,0,0,0,0,0,0,0,0,0,0,0,-0.0614,-0.0616,-0.0618,-0.0648,-0.0783,-0.0783,-0.0774,-0.0716,0,0,0,0,0,0,0,0,0,0,-0.0606,-0.0592,-0.0616,-0.0618,-0.0649,-0.0783,-0.0784,-0.0715,-0.0719,-0.0662,0,-0.0712,0,-0.0733,-0.0769,-0.0769,0,0,0,-0.0641,-0.0589,-0.064,-0.0619,-0.065,-0.0783,-0.072,-0.0719,-0.0724,-0.0667,-0.0712,-0.0713,-0.0733,-0.0769,-0.0769,-0.0883,-0.0885,0,0,-0.0634,-0.0614,-0.0638,-0.0644,-0.0718,-0.0716,-0.0724,-0.0724,-0.0729,-0.0713,-0.0713,-0.0733,-0.0769,-0.0768,-0.0881,-0.0884,0,0,0,-0.0616,-0.0609,-0.0664,-0.0643,-0.0678,-0.072,-0.073,-0.073,-0.0754,-0.0713,-0.0733,-0.0768,-0.0767,-0.088,-0.0882,-0.0963,0,0,0,-0.0611,-0.0599,-0.0661,-0.0646,-0.068,-0.0725,-0.0735,-0.0755,-0.0755,-0.0733,-0.0768,-0.0767,-0.0878,-0.0881,-0.0956,-0.0948,0,0,0,-0.0603,-0.0597,-0.0628,-0.0646,-0.0708,-0.0727,-0.0752,-0.0756,-0.0765,-0.0769,-0.0767,-0.0876,-0.088,-0.0951,-0.0941,-0.0922,0,0,0,-0.0555,-0.0613,-0.0628,-0.0674,-0.0707,-0.0799,-0.0752,-0.0808,-0.0822,-0.0768,-0.0878,-0.0882,-0.0949,-0.0936,-0.0919,-0.082,-0.0827,0,0,-0.0596,-0.0617,-0.0637,-0.0654,-0.0742,-0.0778,-0.0879,-0.0878,-0.0866,-0.0858,-0.0863,-0.0958,-0.094,-0.0921,-0.1058,-0.1057,0,0,0,-0.0626,-0.0666,-0.0685,-0.0741,-0.0797,-0.0883,-0.0927,-0.0958,-0.1019,-0.0896,-0.102,-0.1006,-0.099,-0.0927,-0.0929,-0.0902,-0.0901,-0.0901,-0.09,-0.0792,-0.0764,-0.0806,-0.0823,-0.0878,-0.0977,-0.104,-0.1104,-0.1087,-0.1165,-0.112,-0.1222,-0.1165,-0.1162,-0.1197,-0.1198,-0.1198,-0.1198,-0.1199,-0.0842,-0.0851,-0.0858,-0.088,-0.0972,-0.1074,-0.1169,-0.1206,-0.1275,-0.1273,-0.1254,-0.1077,-0.1168,-0.1206,-0.1205,-0.1204,-0.1203,-0.1202,-0.1202,-0.0851,-0.0862,-0.086,-0.0889,-0.1021,-0.1124,-0.1171,-0.1247,-0.1318,-0.1335,-0.1211,-0.1207,-0.1184,-0.132,-0.132,-0.132,-0.132,-0.132,-0.132,-0.0888,-0.0879,-0.0856,-0.09,-0.0971,-0.1052,-0.1166,-0.1184,-0.1218,-0.1268,-0.1266,-0.1261,-0.1257,-0.1191,-0.1319,-0.1319,-0.132,-0.132,-0.132,-0.0924,-0.088,-0.082,-0.0835,-0.0924,-0.0954,-0.102,-0.1048,-0.1088,-0.1083,-0.1212,-0.1215,-0.1151,-0.1149,-0.1081,-0.1173,-0.1173,-0.1173,-0.1173,-0.0981,-0.0934,-0.0867,-0.0823,-0.0832,-0.0913,-0.0922,-0.0961,-0.1023,-0.105,-0.1056,-0.1038,-0.1046,-0.0974,-0.0977,-0.0904,-0.095,-0.095,-0.095,-0.1058,-0.0997,-0.0951,-0.0824,-0.0826,-0.0856,-0.0913,-0.0995,-0.0975,-0.0943,-0.1043,-0.1153,-0.1141,-0.1148,-0.1047,-0.1047,-0.0934,0,0]},{"header":{"parameterUnit":"m.s-1","parameterCategory":2,"la1":30.2992,"la2":30.254,"lo1":-89.0895,"lo2":-89.0443,"dy":0.0025,"dx":0.0025,"nx":19,"ny":19,"refTime":"2026-04-26T09:00:00:Z","depth":"2","parameterNumber":3,"parameterNumberName":"V-component_of_CURRENTS"},"data":[0,0,0,-0.0194,-0.0192,-0.0073,-0.0072,0.02,0.0203,0,0,0,0,0,0,0,0,0,0,0,-0.022,-0.022,-0.0194,-0.0192,-0.0073,-0.0072,0.02,0.0203,0,0,0,0,0,0,0,0,0,0,0,-0.022,-0.022,-0.0219,-0.0192,-0.0073,-0.0072,0.0199,0.0086,0,0,0,0,0,0,0,0,0,0,-0.0043,-0.0108,-0.022,-0.0219,-0.0191,-0.0073,-0.0072,0.0079,0.0093,0.0173,0,0.0185,0,0.0187,0.0221,0.0222,0,0,0,-0.0167,-0.012,-0.0079,-0.0219,-0.0191,-0.0074,-0.012,0.0086,0.0102,0.0191,0.0189,0.0198,0.0191,0.0223,0.0225,0.0448,0.0448,0,0,-0.0173,-0.0199,-0.009,-0.007,-0.0164,-0.0124,-0.0116,0.0094,0.0107,0.019,0.0203,0.0196,0.0225,0.0227,0.0447,0.0448,0,0,0,-0.0209,-0.0204,-0.017,-0.008,-0.0075,-0.0121,-0.0112,0.0098,0.0111,0.0206,0.0199,0.0227,0.023,0.0447,0.0448,0.0334,0,0,0,-0.0212,-0.0227,-0.0174,-0.0188,-0.0081,-0.0009,-0.0114,0.0097,0.012,0.0197,0.0227,0.0233,0.0447,0.0447,0.0336,0.0267,0,0,0,-0.0225,-0.0229,-0.0215,-0.019,-0.0151,-0.0013,0.0013,0.0102,0.0115,0.0223,0.0234,0.0446,0.0447,0.0338,0.0272,0.027,0,0,0,-0.0254,-0.0264,-0.0215,-0.0214,-0.0152,-0.0082,0.0011,0.0088,0.0172,0.0228,0.0447,0.0448,0.0339,0.0275,0.0272,0.0259,0.0247,0,0,-0.0292,-0.0269,-0.0266,-0.0221,-0.0176,-0.0096,-0.003,0.0119,0.0218,0.039,0.0395,0.0336,0.0272,0.027,0.0308,0.0294,0,0,0,-0.0294,-0.0288,-0.0265,-0.0223,-0.0153,-0.0088,0.0047,0.0123,0.0264,0.0267,0.0385,0.035,0.0351,0.0351,0.034,0.0452,0.0451,0.0451,0.0451,-0.0369,-0.032,-0.0298,-0.0224,-0.0177,-0.0057,0.0006,0.0144,0.0249,0.0296,0.0294,0.0263,0.0263,0.0254,0.035,0.0349,0.0349,0.0349,0.0348,-0.0411,-0.0386,-0.0319,-0.0288,-0.02,-0.0138,0.0001,0.0069,0.0187,0.0261,0.0269,0.0277,0.0235,0.034,0.0342,0.0343,0.0344,0.0344,0.0345,-0.0459,-0.0433,-0.0412,-0.0348,-0.0296,-0.0202,-0.015,-0.0045,0.0073,0.0078,0.0139,0.0141,0.0172,0.01,0.0099,0.0099,0.0099,0.0099,0.0098,-0.0503,-0.0472,-0.0462,-0.0404,-0.0375,-0.0339,-0.0234,-0.017,-0.0067,0.0016,0.0018,0.018,0.0188,0.0162,0.0094,0.0094,0.0095,0.0096,0.0096,-0.0517,-0.0521,-0.0515,-0.0495,-0.043,-0.043,-0.0341,-0.0237,-0.0161,-0.0116,0.001,0.0014,0.0055,0.0066,0.004,-0.0056,-0.0056,-0.0056,-0.0056,-0.0531,-0.0528,-0.0531,-0.0515,-0.0488,-0.0462,-0.0452,-0.0347,-0.0183,-0.0102,-0.01,-0.0058,-0.0051,-0.0011,0.0001,-0.0023,-0.0137,-0.0137,-0.0137,-0.0515,-0.0532,-0.0539,-0.0533,-0.0501,-0.0512,-0.0542,-0.046,-0.0223,-0.014,-0.011,-0.0063,0.0009,0.0017,0.009,0.0105,0.007,0,0]}],[{"header":{"parameterUnit":"m.s-1","parameterCategory":2,"la1":30.2992,"la2":30.254,"lo1":-89.0895,"lo2":-89.0443,"dy":0.0025,"dx":0.0025,"nx":19,"ny":19,"refTime":"2026-04-26T09:00:00:Z","depth":"4","parameterNumber":2,"parameterNumberName":"U-component_of_CURRENTS"},"data":[0,0,0,-0.0016,-0.0019,-0.0171,-0.0172,-0.0384,-0.0386,0,0,0,0,0,0,0,0,0,0,0,0.0045,0.0045,-0.0015,-0.0019,-0.0171,-0.0172,-0.0383,-0.0386,0,0,0,0,0,0,0,0,0,0,0,0.0046,0.0045,0.0044,-0.0019,-0.0171,-0.0172,-0.0383,-0.0267,0,0,0,0,0,0,0,0,0,0,-0.0118,-0.0043,0.0045,0.0044,-0.002,-0.017,-0.0172,-0.0261,-0.0274,-0.0316,0,-0.0328,0,-0.0362,-0.0399,-0.04,0,0,0,-0.003,-0.0031,-0.0085,0.0044,-0.0021,-0.017,-0.0105,-0.0268,-0.0283,-0.0333,-0.0332,-0.034,-0.0366,-0.04,-0.0401,-0.0583,-0.0583,0,0,-0.0022,0.0023,-0.0074,-0.0093,-0.0047,-0.0101,-0.011,-0.0277,-0.028,-0.0332,-0.0345,-0.0369,-0.0402,-0.0403,-0.0582,-0.0583,0,0,0,0.001,0.0029,-0.002,-0.0084,-0.0111,-0.0105,-0.0116,-0.0272,-0.0291,-0.0348,-0.0372,-0.0403,-0.0405,-0.0582,-0.0583,-0.054,0,0,0,0.0014,0.0047,-0.0016,0.001,-0.0107,-0.0188,-0.0107,-0.0279,-0.03,-0.0371,-0.0403,-0.0407,-0.0581,-0.0582,-0.054,-0.0529,0,0,0,0.005,0.0051,0.0036,0.0013,-0.0051,-0.0186,-0.0215,-0.0285,-0.0314,-0.04,-0.0408,-0.0581,-0.0582,-0.054,-0.0529,-0.0542,0,0,0,0.0096,0.0084,0.0037,0.0002,-0.0049,-0.016,-0.0215,-0.0306,-0.0377,-0.0404,-0.0581,-0.0582,-0.054,-0.0529,-0.0542,-0.0438,0,0,0,0.0105,0.0086,0.0059,0.0013,-0.0066,-0.0141,-0.0235,-0.0345,-0.0409,-0.0529,-0.0533,-0.054,-0.0529,-0.0542,-0.0506,0,0,0,0,0.0076,0.0062,0.0028,-0.0031,-0.0122,-0.0204,-0.0314,-0.0368,-0.0479,-0.0455,-0.0575,-0.0571,-0.0579,-0.0521,-0.0588,-0.0588,-0.0588,-0.0588,-0.0587,0.0154,0.0082,0.0038,-0.0057,-0.013,-0.0262,-0.0331,-0.0429,-0.0491,-0.0532,-0.0561,-0.0578,-0.0516,-0.0588,-0.0588,-0.0587,-0.0587,-0.0587,-0.0587,0.0164,0.0126,0.0045,-0.0015,-0.0116,-0.0208,-0.0371,-0.0423,-0.0533,-0.0565,-0.0575,-0.0511,-0.0584,-0.0585,-0.0585,-0.0585,-0.0586,-0.0586,-0.0586,0.0204,0.0176,0.0148,0.0064,-0.0031,-0.0176,-0.0277,-0.0406,-0.0502,-0.0525,-0.0496,-0.0567,-0.0542,-0.0543,-0.0543,-0.0543,-0.0543,-0.0543,-0.0543,0.0259,0.0223,0.0207,0.0127,0.0081,-0.004,-0.0234,-0.0299,-0.0426,-0.0456,-0.0532,-0.0564,-0.0565,-0.0542,-0.0543,-0.0543,-0.0543,-0.0543,-0.0543,0.0262,0.0283,0.0244,0.0226,0.0127,0.0047,-0.0103,-0.0238,-0.0294,-0.0327,-0.0423,-0.0429,-0.044,-0.0445,-0.0418,-0.0382,-0.0381,-0.0379,0,0.0294,0.0288,0.025,0.021,0.0164,0.0062,0.0001,-0.0092,-0.0233,-0.0252,-0.0294,-0.04,-0.0405,-0.0414,-0.0417,-0.0383,0,0,0,0.0293,0.0267,0.0238,0.0191,0.0152,0.0035,-0.0039,-0.0076,-0.0216,-0.021,-0.0346,-0.0355,-0.0364,-0.0543,-0.0576,-0.0578,-0.0543,0,0]},{"header":{"parameterUnit":"m.s-1","parameterCategory":2,"la1":30.2992,"la2":30.254,"lo1":-89.0895,"lo2":-89.0443,"dy":0.0025,"dx":0.0025,"nx":19,"ny":19,"refTime":"2026-04-26T09:00:00:Z","depth":"4","parameterNumber":3,"parameterNumberName":"V-component_of_CURRENTS"},"data":[0,0,0,0.0044,0.0044,0.0058,0.0058,0.0062,0.0062,0,0,0,0,0,0,0,0,0,0,0,0.0046,0.0047,0.0044,0.0044,0.0058,0.0058,0.0062,0.0062,0,0,0,0,0,0,0,0,0,0,0,0.0046,0.0047,0.0048,0.0045,0.0058,0.0058,0.0062,0.0052,0,0,0,0,0,0,0,0,0,0,0.0039,0.0049,0.0047,0.0048,0.0045,0.0058,0.0058,0.0052,0.0053,0.0056,0,0.0075,0,0.0072,0.0063,0.0063,0,0,0,0.0032,0.0048,0.0053,0.0048,0.0045,0.0058,0.0048,0.0052,0.0053,0.0058,0.0075,0.0075,0.0072,0.0063,0.0064,0.0033,0.0032,0,0,0.0031,0.0043,0.0052,0.0054,0.0071,0.0048,0.0049,0.0053,0.0063,0.0075,0.0075,0.0072,0.0064,0.0064,0.0033,0.0033,0,0,0,0.0037,0.0042,0.0047,0.0054,0.006,0.0049,0.005,0.0062,0.0065,0.0075,0.0072,0.0064,0.0064,0.0034,0.0033,-0.0013,0,0,0,0.0036,0.0047,0.0047,0.0053,0.006,0.0063,0.0059,0.0065,0.0065,0.0072,0.0064,0.0064,0.0034,0.0033,-0.0011,-0.0039,0,0,0,0.0042,0.0047,0.0056,0.0054,0.0065,0.0063,0.0065,0.0065,0.0064,0.0063,0.0064,0.0035,0.0034,-0.0009,-0.0036,-0.0056,0,0,0,0.0041,0.0021,0.0056,0.0027,0.0065,0.0007,0.0065,0.0042,0.0036,0.0064,0.0034,0.0033,-0.0008,-0.0033,-0.0054,-0.0041,0,0,0,-0.0001,0.0017,-0.0008,0.0022,-0.0044,0.0003,-0.0067,-0.0029,0.0021,0.0031,0.0031,-0.0012,-0.0035,-0.0056,-0.0106,0,0,0,0,-0.0036,-0.0044,-0.0061,-0.0078,-0.0102,-0.0119,-0.0094,-0.0079,-0.0043,0.0018,-0.0021,-0.0035,-0.0046,-0.0033,0.0028,0.0028,0.0028,0.0028,0.0028,-0.0084,-0.0103,-0.0152,-0.0173,-0.0201,-0.0207,-0.0217,-0.0184,-0.012,-0.0104,-0.008,-0.0138,-0.0127,-0.0082,-0.0082,-0.0083,-0.0083,-0.0083,-0.0083,-0.0159,-0.019,-0.0205,-0.0249,-0.0267,-0.0298,-0.0307,-0.0259,-0.0229,-0.0162,-0.0169,-0.0091,-0.0088,-0.0087,-0.0086,-0.0086,-0.0085,-0.0085,-0.0085,-0.0194,-0.0213,-0.0222,-0.0282,-0.0307,-0.0315,-0.0351,-0.0317,-0.0263,-0.0263,-0.0204,-0.0172,-0.016,-0.023,-0.023,-0.0231,-0.0231,-0.0231,-0.0231,-0.022,-0.0242,-0.0279,-0.0309,-0.0329,-0.0341,-0.035,-0.0358,-0.0316,-0.0266,-0.0246,-0.0188,-0.0183,-0.0169,-0.0235,-0.0234,-0.0234,-0.0233,-0.0233,-0.0265,-0.0273,-0.0328,-0.0356,-0.0399,-0.0398,-0.0408,-0.0391,-0.0391,-0.0366,-0.0277,-0.0274,-0.0255,-0.0249,-0.0236,-0.0324,-0.0325,-0.0325,0,-0.0296,-0.0305,-0.0375,-0.0429,-0.0466,-0.0446,-0.0443,-0.0429,-0.0382,-0.0354,-0.0394,-0.0295,-0.0291,-0.027,-0.0264,-0.025,0,0,0,-0.0328,-0.0337,-0.0387,-0.0437,-0.0482,-0.0451,-0.043,-0.0411,-0.0372,-0.0388,-0.0327,-0.0326,-0.0326,-0.0246,-0.0209,-0.0203,-0.0178,0,0]}]]